TimeCDT,TemperatureF,Dew PointF,Humidity,Sea Level PressureIn,VisibilityMPH,Wind Direction,Wind SpeedMPH,Gust SpeedMPH,PrecipitationIn,Events,Conditions,WindDirDegrees,DateUTC
12:15 AM,70.2,65.5,85,29.99,10.0,SE,3.5,-,N/A,,Clear,140,2013-08-30 05:15:00
12:35 AM,69.4,65.3,87,29.98,10.0,Calm,Calm,-,N/A,,Clear,0,2013-08-30 05:35:00
12:55 AM,69.3,65.3,87,29.98,10.0,Calm,Calm,-,N/A,,Clear,0,2013-08-30 05:55:00
1:15 AM,68.9,64.9,87,29.96,10.0,Calm,Calm,-,N/A,,Clear,0,2013-08-30 06:15:00
1:35 AM,68.7,64.9,88,29.96,10.0,Calm,Calm,-,N/A,,Clear,0,2013-08-30 06:35:00
1:55 AM,68.5,64.8,88,29.97,10.0,Calm,Calm,-,N/A,,Clear,0,2013-08-30 06:55:00
2:15 AM,68.4,64.9,89,29.96,10.0,Calm,Calm,-,N/A,,Clear,0,2013-08-30 07:15:00
2:35 AM,68.9,65.3,88,29.95,10.0,South,3.5,-,N/A,,Clear,170,2013-08-30 07:35:00
2:55 AM,68.5,65.3,89,29.95,10.0,South,4.6,-,N/A,,Clear,170,2013-08-30 07:55:00
3:15 AM,68.2,65.5,91,29.93,7.0,South,3.5,-,N/A,,Clear,190,2013-08-30 08:15:00
3:35 AM,68.0,65.5,92,29.93,7.0,South,4.6,-,N/A,,Clear,190,2013-08-30 08:35:00
3:55 AM,68.0,65.7,92,29.92,7.0,South,4.6,-,N/A,,Clear,180,2013-08-30 08:55:00
4:15 AM,68.0,65.8,93,29.91,7.0,South,3.5,-,N/A,,Clear,180,2013-08-30 09:15:00
4:35 AM,68.0,66.2,94,29.91,7.0,Calm,Calm,-,N/A,,Clear,0,2013-08-30 09:35:00
4:55 AM,68.0,66.4,95,29.90,7.0,SSW,3.5,-,N/A,,Clear,200,2013-08-30 09:55:00
5:15 AM,68.4,66.7,95,29.90,7.0,Calm,Calm,-,N/A,,Clear,0,2013-08-30 10:15:00
5:35 AM,68.4,66.7,95,29.91,7.0,Calm,Calm,-,N/A,,Clear,0,2013-08-30 10:35:00
5:55 AM,68.2,66.7,95,29.91,5.0,Calm,Calm,-,N/A,,Scattered Clouds,0,2013-08-30 10:55:00
6:35 AM,68.5,67.3,96,29.90,4.0,Calm,Calm,-,N/A,,Mostly Cloudy,0,2013-08-30 11:35:00
6:55 AM,69.3,67.5,94,29.90,5.0,Calm,Calm,-,N/A,,Scattered Clouds,0,2013-08-30 11:55:00
7:15 AM,69.8,68.0,94,29.89,5.0,South,3.5,-,N/A,,Clear,170,2013-08-30 12:15:00
7:35 AM,71.2,68.9,92,29.89,5.0,South,5.8,-,N/A,,Clear,180,2013-08-30 12:35:00
7:55 AM,73.6,70.0,88,29.89,10.0,SSW,8.1,-,N/A,,Clear,200,2013-08-30 12:55:00
8:55 AM,78.1,72.5,83,29.87,10.0,SSW,10.4,-,N/A,,Scattered Clouds,210,2013-08-30 13:55:00
9:15 AM,78.8,72.7,81,29.87,10.0,SSW,10.4,-,N/A,,Scattered Clouds,210,2013-08-30 14:15:00
9:35 AM,79.9,72.7,79,29.86,10.0,SSW,11.5,-,N/A,,Clear,210,2013-08-30 14:35:00
10:15 AM,82.4,73.8,75,29.86,10.0,SW,10.4,-,N/A,,Scattered Clouds,220,2013-08-30 15:15:00
10:55 AM,84.6,74.7,72,29.85,10.0,SW,9.2,-,N/A,,Scattered Clouds,230,2013-08-30 15:55:00
11:35 AM,86.7,74.3,66,29.84,10.0,SW,8.1,-,N/A,,Scattered Clouds,220,2013-08-30 16:35:00
11:55 AM,87.3,74.8,66,29.84,10.0,SSW,9.2,-,N/A,,Scattered Clouds,210,2013-08-30 16:55:00
12:15 PM,88.9,74.5,62,29.83,10.0,SW,10.4,-,N/A,,Scattered Clouds,230,2013-08-30 17:15:00
12:35 PM,88.9,74.3,62,29.83,10.0,WSW,9.2,16.1,N/A,,Scattered Clouds,240,2013-08-30 17:35:00
2:15 PM,92.1,74.8,57,29.78,10.0,WSW,13.8,-,N/A,Thunderstorm,Thunderstorm,240,2013-08-30 19:15:00
3:55 PM,74.1,70.0,87,29.79,10.0,SE,9.2,-,0.03,Rain-Thunderstorm,Light Thunderstorms and Rain,130,2013-08-30 20:55:00
4:15 PM,74.3,68.9,83,29.79,10.0,East,8.1,-,N/A,Rain-Thunderstorm,Light Thunderstorms and Rain,80,2013-08-30 21:15:00
4:35 PM,75.0,69.8,84,29.80,10.0,SE,3.5,-,N/A,Thunderstorm,Scattered Clouds,130,2013-08-30 21:35:00
4:55 PM,78.4,72.0,80,29.80,10.0,ESE,4.6,-,N/A,Thunderstorm,Clear,120,2013-08-30 21:55:00
5:15 PM,80.2,72.0,76,29.79,10.0,NW,3.5,-,N/A,,Clear,320,2013-08-30 22:15:00
5:55 PM,80.8,72.5,76,29.80,10.0,Calm,Calm,-,N/A,,Clear,0,2013-08-30 22:55:00
6:15 PM,81.5,73.0,75,29.81,10.0,ENE,3.5,-,N/A,,Clear,70,2013-08-30 23:15:00
6:55 PM,79.9,73.0,80,29.82,10.0,North,3.5,-,N/A,,Overcast,360,2013-08-30 23:55:00
7:15 PM,79.2,72.5,80,29.83,10.0,North,5.8,-,N/A,,Mostly Cloudy,10,2013-08-31 00:15:00
7:55 PM,76.3,69.8,80,29.86,10.0,East,11.5,-,N/A,,Overcast,90,2013-08-31 00:55:00
8:15 PM,74.5,67.8,80,29.86,10.0,East,13.8,17.3,N/A,,Overcast,80,2013-08-31 01:15:00
8:35 PM,73.8,66.9,79,29.87,10.0,East,11.5,-,N/A,,Overcast,80,2013-08-31 01:35:00
8:55 PM,72.7,66.7,82,29.88,10.0,East,9.2,-,N/A,,Overcast,90,2013-08-31 01:55:00
10:35 PM,68.9,64.0,84,29.88,10.0,ENE,8.1,-,N/A,,Overcast,70,2013-08-31 03:35:00
10:55 PM,68.0,63.9,87,29.88,10.0,ENE,5.8,-,N/A,,Scattered Clouds,70,2013-08-31 03:55:00
11:35 PM,68.2,63.7,85,29.89,10.0,ENE,3.5,-,N/A,,Overcast,60,2013-08-31 04:35:00
11:55 PM,68.0,63.1,84,29.89,10.0,NE,6.9,-,N/A,,Overcast,40,2013-08-31 04:55:00